Flag for Germany Weather past 2 weeks in Barsinghausen, Lower Saxony, Germany

Now
43 °F

Quite cool.


Feels Like: 36 °F
Forecast: 44 / 49 °F
Wind: 13 mph from Southwest

Location: Wunstorf Airport

Current Time: Dec 21, 2014 at 12:03:13 PM

Latest Report: Dec 21, 2014 at 11:20 AM


Visibility: 4 mi

Pressure: 30.27 "Hg

Humidity: 87%

Dew point: 39 °F

Location of BarsinghausenLocation

Historic Weather in Barsinghausen — Graph

°F

Barsinghausen temperature yesterday

Maximum temperature yesterday: 45 °F (at 1:20 AM)
Minimum temperature yesterday: 39 °F (at 3:20 PM)
Average temperature yesterday: 42 °F

Past Weeks' High & Low Weather Summary

 TemperatureHumidityPressure
High54 °F (Dec 18, 5:20 PM)100% (Dec 7, 2:20 AM)30.33 "Hg (Dec 7, 2:20 AM)
Low30 °F (Dec 14, 7:20 PM)66% (Dec 7, 4:20 PM)29.30 "Hg (Dec 12, 2:20 PM)
Average41 °F87%29.88 "Hg
* Reported Dec 6 10:20 AM — Dec 21 10:20 AM, Barsinghausen, Weather by CustomWeather, © 2014

Note: Actual official high and low records may vary slightly from our data, if they occured in-between our weather recording intervals... More about our weather records

Advertising

Barsinghausen weather history for previous 24 hours

 ConditionsComfort  
Time TempWeatherWind HumidityBarometerVisibility
10:20 AM
Dec 21
41 °FQuite cool.14 mph93%30.27 "Hg3 mi
9:20 AM39 °FChilly.13 mph93%30.27 "Hg3 mi
8:20 AM39 °FChilly.10 mph93%30.27 "Hg4 mi
7:20 AM39 °FChilly.8 mph93%30.27 "Hg4 mi
6:20 AM41 °FQuite cool.12 mph87%30.24 "Hg4 mi
5:20 AM41 °FQuite cool.12 mph87%30.24 "Hg4 mi
4:20 AM41 °FQuite cool.12 mph87%30.24 "Hg4 mi
3:20 AM41 °FQuite cool.14 mph81%30.21 "Hg4 mi
2:20 AM41 °FQuite cool.15 mph81%30.18 "Hg3 mi
1:20 AM41 °FQuite cool.17 mph81%30.15 "Hg4 mi
12:20 AM41 °FQuite cool.16 mph81%30.15 "Hg4 mi
11:20 PM
Dec 20
39 °FChilly.15 mph87%30.12 "Hg4 mi
10:20 PM39 °FChilly.16 mph87%30.09 "Hg4 mi
9:20 PM41 °FQuite cool.16 mph81%30.07 "Hg4 mi
8:20 PM39 °FChilly.15 mph87%30.04 "Hg4 mi
7:20 PM41 °FQuite cool.18 mph87%29.98 "Hg4 mi
6:20 PM41 °FQuite cool.21 mph87%29.95 "Hg1 mi
5:20 PM39 °FChilly.22 mph93%29.92 "Hg0 mi
4:20 PM41 °FQuite cool.20 mph81%29.89 "Hg3 mi
3:20 PM39 °FChilly.18 mph93%29.86 "Hg1 mi
2:20 PM45 °FQuite cool.24 mph81%29.89 "Hg1 mi
1:20 PM45 °FQuite cool.21 mph81%29.86 "Hg2 mi
12:20 PM43 °FQuite cool.22 mph87%29.86 "Hg2 mi
Weather by CustomWeather, © 2014

See weather overviewHow to use our weather pages